Location: Bear Valley Community Church - Hurst
(32.8460°N, 97.1828°W)
Time: 01:28:37
(UTC+00:00)

Cosmos 1092 Rocket - Pass Details

Date: 12 July 2022
Orbit: 955 x 994 km, 83.0° (Epoch: 07 August)

Event Time Altitude Azimuth Distance (km) Brightness Sun altitude
Rises 10:03:18 0° 141° (SE) 3,624 7.0 -15.9°
Reaches altitude 10° 10:06:44 10° 121° (ESE) 2,679 6.5 -15.4°
Maximum altitude 10:10:24 17° 84° (E) 2,234 6.7 -14.8°
Drops below altitude 10° 10:14:04 10° 47° (NE) 2,686 7.7 -14.2°
Sets 10:17:30 0° 27° (NNE) 3,638 8.3 -13.6°
